Location: Newark
(41.0400°S, 62.7845°W)
Time: 21:23:28
(UTC+00:00)

S-56A Canister/Altair - All Passes

Search period start: 06 December 2021 00:00
Search period end: 16 December 2021 00:00
Orbit: 633 x 2500 km, 38.9° (Epoch: 06 December)

Date Brightness Start Highest point End Pass type
(mag) Time Alt. Az. Time Alt. Az. Time Alt. Az.
06 Dec - 14:36:34 10° NNW 14:43:00 41° NE 14:52:28 10° E daylight
06 Dec - 16:38:53 10° WNW 16:47:14 76° N 17:00:00 10° E daylight
06 Dec - 18:42:38 10° W 18:52:59 77° N 19:07:30 10° ENE daylight
06 Dec - 20:47:14 10° W 20:58:58 51° NNW 21:13:13 10° NE daylight
06 Dec - 22:54:24 10° W 23:04:02 22° NW 23:14:14 10° N daylight
07 Dec - 14:04:31 10° NNW 14:10:22 35° NE 14:18:46 10° E daylight
07 Dec - 16:06:28 10° WNW 16:14:14 73° NNE 16:26:14 10° E daylight
07 Dec - 18:10:00 10° W 18:19:42 78° N 18:33:46 10° ENE daylight
07 Dec - 20:14:19 10° W 20:25:36 54° NNW 20:39:54 10° NE daylight
07 Dec - 22:20:47 10° W 22:30:50 25° NW 22:41:49 10° N daylight
08 Dec - 13:32:34 10° NNW 13:37:49 29° NE 13:45:05 10° E daylight
08 Dec - 15:34:05 10° WNW 15:41:18 69° NNE 15:52:30 10° E daylight
08 Dec - 17:37:25 10° W 17:46:30 79° N 18:00:01 10° ENE daylight
08 Dec - 19:41:31 10° W 19:52:16 57° NNW 20:06:29 10° NE daylight
08 Dec - 21:47:23 10° W 21:57:35 28° NW 22:09:10 10° N daylight
09 Dec - 13:00:43 10° N 13:05:20 24° NE 13:11:24 10° E daylight
09 Dec - 15:01:46 10° WNW 15:08:28 64° NNE 15:18:50 10° E daylight
09 Dec - 17:04:54 10° W 17:13:22 80° N 17:26:15 10° E daylight
09 Dec - 19:08:46 10° W 19:18:59 60° NNW 19:33:00 10° NE daylight
09 Dec - 21:14:10 10° W 21:24:21 31° NW 21:36:22 10° NNE daylight
10 Dec - 12:29:03 10° N 12:32:53 19° NE 12:37:40 10° E daylight
10 Dec - 14:29:30 10° NW 14:35:44 59° NNE 14:45:13 10° E daylight
10 Dec - 16:32:27 10° W 16:40:19 80° N 16:52:29 10° E daylight
10 Dec - 18:36:07 10° W 18:45:44 62° NNW 18:59:25 10° NE daylight
10 Dec - 20:41:04 10° W 20:51:07 33° NW 21:03:25 10° NNE daylight
11 Dec - 11:57:39 10° NNE 12:00:29 14° NE 12:03:46 10° ENE daylight
11 Dec - 13:57:18 10° NW 14:03:04 52° NNE 14:11:40 10° E daylight
11 Dec - 16:00:01 10° W 16:07:21 79° N 16:18:46 10° E daylight
11 Dec - 18:03:32 10° W 18:12:34 65° NNW 18:25:48 10° ENE daylight
11 Dec - 20:08:07 10° W 20:17:54 36° NW 20:30:19 10° NNE daylight
11 Dec - 22:18:52 10° WNW 22:22:36 11° NW 22:26:31 10° NNW daylight
12 Dec - 11:27:20 10° NE 11:28:07 10° NE 11:28:55 10° NE daylight
12 Dec - 13:25:08 10° NW 13:30:28 46° NNE 13:38:13 10° E daylight
12 Dec - 15:27:38 10° W 15:34:27 78° N 15:45:05 10° E daylight
12 Dec - 17:31:00 10° W 17:39:28 67° NNW 17:52:09 10° ENE daylight
12 Dec - 19:35:16 10° W 19:44:42 38° NNW 19:57:08 10° NNE daylight
12 Dec - 21:44:06 10° WNW 21:49:31 14° NW 21:55:23 10° NNW daylight
13 Dec - 12:53:00 10° NW 12:57:56 39° NNE 13:04:49 10° E daylight
13 Dec - 14:55:18 10° WNW 15:01:38 76° N 15:11:28 10° E daylight
13 Dec - 16:58:32 10° W 17:06:26 69° NNW 17:18:30 10° ENE daylight
13 Dec - 19:02:31 10° W 19:11:33 41° NNW 19:23:51 10° NNE daylight
13 Dec - 21:10:06 10° WNW 21:16:25 16° NW 21:23:30 10° NNW daylight
14 Dec - 12:20:56 10° NNW 12:25:28 33° NNE 12:31:30 10° E daylight
14 Dec - 14:22:59 10° WNW 14:28:54 73° N 14:37:57 10° E daylight
14 Dec - 16:26:06 10° W 16:33:28 71° N 16:44:51 10° ENE daylight
14 Dec - 18:29:52 10° W 18:38:27 43° NNW 18:50:30 10° NE daylight
14 Dec - 20:36:32 10° WNW 20:43:20 18° NW 20:51:13 10° N daylight
15 Dec - 11:48:55 10° NNW 11:53:01 27° NE 11:58:13 10° E daylight
15 Dec - 13:50:42 10° WNW 13:56:14 69° NNE 14:04:30 10° E daylight
15 Dec - 15:53:43 10° W 16:00:35 73° N 16:11:13 10° ENE daylight
15 Dec - 17:57:17 10° W 18:05:24 45° NNW 18:17:06 10° NE daylight
15 Dec - 20:03:13 10° W 20:10:15 19° NW 20:18:41 10° N daylight
